TimeEDT,TemperatureF,Dew PointF,Humidity,Sea Level PressureIn,VisibilityMPH,Wind Direction,Wind SpeedMPH,Gust SpeedMPH,PrecipitationIn,Events,Conditions,WindDirDegrees,DateUTC
12:53 AM,51.1,48.9,92,29.89,10.0,Calm,Calm,-,N/A,,Mostly Cloudy,0,2012-10-02 04:53:00
1:53 AM,52.0,50.0,93,29.90,10.0,Calm,Calm,-,N/A,,Mostly Cloudy,0,2012-10-02 05:53:00
2:53 AM,53.1,50.0,89,29.91,10.0,Calm,Calm,-,N/A,,Partly Cloudy,0,2012-10-02 06:53:00
3:53 AM,51.1,48.9,92,29.91,10.0,Calm,Calm,-,N/A,,Clear,0,2012-10-02 07:53:00
4:53 AM,51.1,48.0,89,29.93,10.0,Calm,Calm,-,N/A,,Clear,0,2012-10-02 08:53:00
5:53 AM,51.1,48.9,92,29.94,10.0,Calm,Calm,-,N/A,,Clear,0,2012-10-02 09:53:00
6:53 AM,51.1,48.9,92,29.97,10.0,Calm,Calm,-,N/A,,Clear,0,2012-10-02 10:53:00
7:53 AM,55.0,52.0,89,29.99,10.0,Calm,Calm,-,N/A,,Clear,0,2012-10-02 11:53:00
8:53 AM,62.1,55.0,78,30.00,10.0,Calm,Calm,-,N/A,,Clear,0,2012-10-02 12:53:00
9:53 AM,64.9,54.0,68,30.01,10.0,Variable,3.5,-,N/A,,Clear,0,2012-10-02 13:53:00
10:53 AM,66.9,54.0,63,30.01,10.0,Variable,3.5,-,N/A,,Clear,0,2012-10-02 14:53:00
11:53 AM,70.0,53.1,55,30.01,10.0,Variable,4.6,-,N/A,,Clear,0,2012-10-02 15:53:00
12:53 PM,69.1,54.0,58,30.00,10.0,SSW,8.1,-,N/A,,Clear,210,2012-10-02 16:53:00
1:53 PM,69.1,55.0,61,29.99,10.0,Variable,4.6,-,N/A,,Clear,0,2012-10-02 17:53:00
2:53 PM,68.0,55.9,65,30.00,10.0,SSW,8.1,-,N/A,,Clear,210,2012-10-02 18:53:00
3:53 PM,66.0,55.0,68,30.00,10.0,SSW,5.8,-,N/A,,Clear,200,2012-10-02 19:53:00
4:53 PM,64.0,55.9,75,30.00,10.0,SSW,3.5,-,N/A,,Clear,200,2012-10-02 20:53:00
5:53 PM,63.0,57.0,81,30.01,10.0,Calm,Calm,-,N/A,,Clear,0,2012-10-02 21:53:00
6:53 PM,61.0,57.0,87,30.02,10.0,Calm,Calm,-,N/A,,Clear,0,2012-10-02 22:53:00
8:53 PM,57.9,55.9,93,30.03,10.0,Calm,Calm,-,N/A,,Clear,0,2012-10-03 00:53:00
9:53 PM,57.0,54.0,89,30.05,10.0,Calm,Calm,-,N/A,,Clear,0,2012-10-03 01:53:00
10:53 PM,55.0,53.1,93,30.06,10.0,Calm,Calm,-,N/A,,Scattered Clouds,0,2012-10-03 02:53:00
11:53 PM,55.9,53.1,90,30.06,10.0,Calm,Calm,-,N/A,,Mostly Cloudy,0,2012-10-03 03:53:00